Weather History for YTEF - January, 2013

Change the Weather History Date:

Wednesday, January 16, 2013

  Actual Average Record
Temperature  
Mean Temperature 96 °F -  
Max Temperature 110 °F - - ()
Min Temperature 81 °F - - ()
Cooling Degree Days 30    
Growing Degree Days 46 (Base 50)    
Moisture  
Dew Point 69 °F    
Average Humidity 40    
Maximum Humidity 70    
Minimum Humidity 16    
Precipitation  
Precipitation 0.39 in - - ()
Sea Level Pressure  
Sea Level Pressure 29.67 in    
Wind  
Wind Speed 8 mph ()    
Max Wind Speed 18 mph    
Max Gust Speed 18 mph    
T = Trace of Precipitation, MM = Missing Value Source: Averaged Metar Reports

Daily Weather History Graph

Daily Weather History Graph

Search for Another Location

Airport or City:

Trip Planner

Search our weather history database for the weather conditions in past years. The results will help you decide how hot, cold, wet, or windy it might be!

Date:

Astronomy

Jan. 16, 2013 Rise Set
Actual Time 5:21 AM AWST 6:39 PM AWST
Civil Twilight 4:57 AM AWST 7:04 PM AWST
Nautical Twilight 4:28 AM AWST 7:33 PM AWST
Astronomical Twilight 3:58 AM AWST 8:02 PM AWST
Moon 9:34 AM AWST (1/16) 9:49 PM AWST (1/16)
Length of Visible Light 14h 06m
Length of Day
13h 17m
Waxing Crescent, 23% of the Moon is Illuminated
Jan 16
Waxing Crescent
Jan 19
First Quarter
Jan 27
Full
Feb 3
Last Quarter
Feb 10
New

Hourly Weather History & Observations

Time (AWST) Temp. Heat Index Dew Point Humidity Pressure Visibility Wind Dir Wind Speed Gust Speed Precip Events Conditions
12:00 AM 86 °F - 74 °F 61% 29.68 in - WNW 5.8 mph - -  
12:00 AM 86.0 °F 95.1 °F 75.2 °F 70% 29.74 in - WNW 5.8 mph 18.4 mph N/A   Unknown
1:00 AM 87.8 °F 93.8 °F 71.6 °F 58% 29.68 in - WNW 5.8 mph - N/A   Unknown
2:00 AM 86 °F - 72 °F 55% 29.62 in - NW 8.1 mph - -  
2:00 AM 86.0 °F 91.8 °F 71.6 °F 62% 29.68 in - NW 8.1 mph - N/A   Unknown
3:00 AM 87 °F - 72 °F 51% 29.64 in - West 4.6 mph - -  
3:00 AM 86.0 °F 91.8 °F 71.6 °F 62% 29.71 in - West 4.6 mph - N/A   Unknown
4:00 AM 86.0 °F 93.4 °F 73.4 °F 66% 29.74 in - NW 4.6 mph - N/A   Unknown
5:00 AM 84 °F - 73 °F 62% 29.69 in - NW 8.1 mph - -  
5:00 AM 84.2 °F 90.9 °F 73.4 °F 70% 29.74 in - NW 8.1 mph - N/A   Unknown
6:00 AM 84.2 °F 90.9 °F 73.4 °F 70% 29.77 in - NW 8.1 mph - N/A   Unknown
7:00 AM 87.8 °F 95.6 °F 73.4 °F 62% 29.77 in - NW 11.5 mph - N/A   Unknown
8:00 AM 92 °F - 73 °F 45% 29.71 in - NW 12.7 mph - -  
8:00 AM 91.4 °F 100.1 °F 73.4 °F 55% 29.77 in - NW 12.7 mph - N/A   Unknown
9:00 AM 97 °F - 71 °F 34% 29.70 in - WNW 12.7 mph - -  
9:00 AM 96.8 °F 105.1 °F 71.6 °F 44% 29.77 in - WNW 12.7 mph - N/A   Unknown
10:00 AM 98.6 °F 105.5 °F 69.8 °F 39% 29.74 in - West 11.5 mph - N/A   Unknown
11:00 AM 103 °F - 67 °F 22% 29.67 in - NW 9.2 mph - -  
11:00 AM 102.2 °F 108.4 °F 68.0 °F 33% 29.74 in - NW 9.2 mph - N/A   Unknown
12:00 PM 105 °F - 67 °F 21% 29.66 in - North 6.9 mph - -  
12:00 PM 104.0 °F 108.9 °F 66.2 °F 29% 29.71 in - North 6.9 mph - N/A   Unknown
1:00 PM 107.6 °F 113.2 °F 66.2 °F 26% 29.68 in - North 8.1 mph - N/A   Unknown
2:00 PM 108 °F - 65 °F 17% 29.61 in - NE 11.5 mph - -  
2:00 PM 107.6 °F 112.3 °F 64.4 °F 25% 29.68 in - NE 11.5 mph - N/A   Unknown
3:00 PM 108 °F - 65 °F 17% 29.58 in - North 6.9 mph - -  
3:00 PM 107.6 °F 113.2 °F 66.2 °F 26% 29.65 in - North 6.9 mph - N/A   Unknown
4:00 PM 109.4 °F 115.6 °F 66.2 °F 25% 29.62 in - NW 11.5 mph - N/A   Unknown
5:00 PM 107 °F - 64 °F 16% 29.55 in - NNW 9.2 mph - -  
6:00 PM 106 °F - 64 °F 17% 29.56 in - NNW 6.9 mph - -  
6:00 PM 105.8 °F 109.8 °F 64.4 °F 26% 29.62 in - NNW 6.9 mph - N/A   Unknown
7:00 PM 102.2 °F 105.5 °F 64.4 °F 29% 29.65 in - NNW 5.8 mph - N/A   Unknown
8:00 PM 101 °F - 66 °F 23% 29.60 in - NW 6.9 mph - -  
8:00 PM 100.4 °F 104.9 °F 66.2 °F 33% 29.65 in - NW 6.9 mph - N/A   Unknown
9:00 PM 99 °F - 67 °F 26% 29.59 in - NW 10.4 mph - -  
9:00 PM 98.6 °F 102.8 °F 66.2 °F 35% 29.65 in - NW 10.4 mph - N/A   Unknown
10:00 PM 98.6 °F 104.1 °F 68.0 °F 37% 29.65 in - NW 12.7 mph - N/A   Unknown
11:00 PM 96 °F - 68 °F 31% 29.57 in - WNW 18.4 mph - -  
11:00 PM 96.8 °F 101.8 °F 68.0 °F 39% 29.65 in - WNW 18.4 mph - N/A   Unknown